#timestamp,LO_Frequency,Hit,StdDev 
1541156415.0,286046998.1,N
1541156415.9,286046998.1,N
1541156435.8,286046998.9,N
1541156455.6,286046998.4,N
1541156475.5,286047000.0,N
1541156495.3,286047000.6,N
1541156515.1,286047000.0,N
1541156535.9,286046999.7,N
1541156555.7,286047001.1,N
1541156575.5,286046999.9,N
1541156595.4,286047000.6,N
1541156615.2,286047000.4,N
1541156635.1,286046998.7,N
1541156636.0,286046998.7,N
1541156655.8,286047000.7,N
1541156675.6,286047001.0,N
1541156695.5,286047000.4,N
1541156715.3,286047000.3,N
1541156735.1,286047002.6,N
1541156755.9,286047001.9,N
1541156775.7,286047004.0,N
1541156795.6,286047001.4,N
1541156815.4,286047001.4,N
1541156835.2,286047004.0,N
1541156855.1,286047002.2,N
1541156856.0,286047002.2,N
1541156875.8,286047002.1,N
1541156895.7,286047004.4,N
1541156915.5,286047003.8,N
1541156935.3,286047003.0,N
1541156955.2,286047004.1,N
1541156975.0,286047002.2,N
1541156975.9,286047002.2,N
1541156995.7,286047002.4,N
1541157015.6,286046999.9,N
1541157035.4,286047002.4,N
1541157055.3,286047002.8,N
1541157075.1,286047002.8,N
1541157095.8,286047002.6,N
1541157115.7,286047000.2,N
1541157135.5,286047002.7,N
1541157155.4,286046999.8,N
1541157175.2,286047001.7,N
1541157195.0,286047001.7,N
1541157195.9,286047001.7,N
1541157215.8,286047001.9,N
1541157235.6,286047002.2,N
1541157255.4,286047002.2,N
1541157275.3,286047002.5,N
1541157295.1,286047001.9,N
1541157315.9,286046999.9,N
1541157335.7,286046999.7,N
1541157355.5,286046999.7,N
1541157375.4,286047004.3,Y
1541157395.2,286047000.3,P
1541157415.1,286046998.3,N
1541157446.0,286046998.6,E
1541157455.0,286047000.9,N
1541157455.9,286047000.9,P
1541157475.7,286047001.8,P
1541157495.6,286047003.9,Y
1541157515.4,286047002.7,P
1541157535.3,286047002.8,P
1541157555.1,286046999.8,N
1541157575.8,286047000.1,N
1541157595.7,286047001.9,N
1541157615.5,286047002.1,N
1541157635.4,286047002.3,N
1541157655.2,286047001.4,N
1541157675.0,286047001.9,N
1541157675.9,286047001.9,N
1541157695.8,286047003.3,Y
1541157715.6,286047002.3,P
1541157735.5,286047002.3,P
1541157755.3,286047000.3,N
1541157775.1,286046998.2,N
1541157795.9,286047001.0,N
1541157815.7,286047000.5,N
1541157835.5,286047001.0,N
1541157855.4,286046999.9,N
1541157875.2,286047000.0,N
1541157895.1,286047000.5,N
1541157896.0,286047000.5,N
1541157915.8,286047001.1,N
1541157935.6,286046998.2,N
1541157955.5,286047000.9,N
1541157975.3,286046998.3,N
1541157995.1,286047000.7,N
1541158015.9,286047000.9,N
1541158035.7,286047000.4,N
1541158055.6,286047001.0,N
1541158075.4,286047000.0,N
1541158095.2,286047000.0,N
1541158115.1,286047000.3,N
1541158116.0,286047000.3,N
1541158135.8,286047001.2,N
1541158155.7,286047001.1,N
1541158175.5,286046999.1,N
1541158195.3,286046998.7,N
1541158215.2,286047000.9,N
1541158235.0,286047000.4,N
1541158235.9,286047000.4,N
1541158255.7,286047000.5,N
1541158275.6,286046998.1,N
1541158295.4,286047000.9,N
1541158315.3,286046998.4,N
1541158335.1,286046999.2,N
1541158355.8,286046997.3,N
1541158375.7,286046997.2,N
1541158395.5,286046996.8,N
1541158415.4,286046996.6,N
1541158435.2,286046996.9,N
1541158455.0,286046997.1,N
1541158455.9,286046997.1,N
1541158475.8,286046996.7,N
1541158495.6,286046996.7,N
1541158515.4,286046997.3,N
1541158535.3,286046996.9,N
1541158555.1,286046999.5,N
1541158575.9,286046998.7,N
1541158595.7,286046999.1,N
1541158615.5,286046997.0,N
1541158635.4,286046996.6,N
1541158655.2,286046997.2,N
1541158675.0,286046996.9,N
1541158675.9,286046996.9,N
1541158695.8,286046996.6,N
1541158715.6,286046999.2,N
1541158735.5,286046997.7,N
1541158755.3,286046996.8,N
1541158775.1,286046997.3,N
1541158795.9,286046997.3,N
1541158815.7,286046996.7,N
1541158835.5,286046997.2,N
1541158855.4,286046997.8,N
1541158875.2,286046997.2,Y
1541158895.1,286047000.4,P
1541158896.0,286047000.4,N
1541158915.8,286047000.3,N
1541158935.6,286046998.2,N
1541158955.5,286046998.1,N
1541158975.3,286047000.2,N
1541158995.2,286047000.8,N
1541159015.9,286046998.2,N
1541159035.7,286047000.7,N
1541159055.6,286046998.5,N
1541159075.4,286047000.5,N
1541159095.2,286046998.3,N
1541159115.1,286047001.0,N
1541159116.0,286047001.0,N
1541159135.8,286046998.1,N
1541159155.7,286047000.9,N
1541159175.5,286046998.1,N
1541159195.3,286046998.7,N
1541159215.2,286046999.1,N
1541159235.0,286046999.6,N
1541159235.9,286046999.6,N
1541159255.7,286046998.4,N
1541159275.6,286047001.2,N
1541159295.4,286046998.8,N
1541159315.3,286046999.6,N
1541159335.1,286046996.6,N
1541159336.0,286046996.6,N
1541159355.8,286046997.6,N
1541159375.7,286046997.6,N
1541159395.5,286046996.8,N
1541159415.4,286046996.6,N
1541159435.2,286046997.4,N
1541159455.0,286046996.7,N
1541159455.9,286046996.7,N
1541159475.8,286046997.0,N
1541159495.6,286046997.4,N
1541159515.5,286046997.9,N
1541159535.3,286046995.5,Y
1541159555.1,286046999.6,P
1541159575.9,286046998.6,N
1541159595.7,286046998.3,P
1541159615.6,286046996.9,Y
1541159635.4,286046999.9,P
1541159655.2,286046998.5,N
1541159675.1,286047001.2,N
1541159676.0,286047001.2,N
1541159695.8,286046998.5,N
1541159715.6,286046999.3,N
1541159735.5,286046998.4,N
1541159755.3,286046997.0,N
1541159775.2,286046997.7,N
1541159795.9,286046997.9,N
1541159815.7,286046995.3,Y
1541159835.6,286046995.0,P
1541159855.4,286046995.5,N
1541159875.3,286046995.1,N
1541159895.1,286046995.7,N
1541159896.0,286046995.7,N
1541159915.8,286046995.5,Y
1541159935.7,286046998.2,P
1541159955.5,286046997.0,N
1541159975.3,286046996.9,P
1541159995.2,286046996.8,Y
